Regional Weather Roundup
Issued by NWS Charleston, WV

Home | Current Version | Previous Version | Graphics & Text | Print | Product List | Glossary On
Versions: 1 2 3 4 5 6 7 8 9 10 11 12 13 14 15 16 17 18 19 20 21 22 23 24 25 26 27 28 29 30 31 32 33 34 35 36 37 38 39 40 41 42 43 44 45 46 47 48 49 50
000
ASUS41 KRLX 052210
RWRRLX
West Virginia Regional Weather Roundup
National Weather Service Charleston WV
600 PM EDT TUE MAY 05 2015

Note: "fair" indicates few or no clouds below 12,000 feet with no
significant weather and/or obstructions to visibility.

WVZ003-052300-
Northern Panhandle of West Virginia

CITY           SKY/WX    TMP DP  RH WIND       PRES   REMARKS
WHEELING       PTSUNNY   76  59  55 CALM      30.21F
$$

WVZ009-052300-
Northwest West Virginia

CITY           SKY/WX    TMP DP  RH WIND       PRES   REMARKS
PARKERSBURG    MOSUNNY   81  56  42 CALM      30.21F
$$

WVZ006-052300-
Western West Virginia

CITY           SKY/WX    TMP DP  RH WIND       PRES   REMARKS
HUNTINGTON     MOSUNNY   82  52  35 SW6       30.19F
$$

WVZ015-052300-
West Central West Virginia

CITY           SKY/WX    TMP DP  RH WIND       PRES   REMARKS
CHARLESTON     CLOUDY    81  51  35 W6        30.20F
$$

WVZ022-031-052300-
North Central West Virginia

CITY           SKY/WX    TMP DP  RH WIND       PRES   REMARKS
CLARKSBURG     PTSUNNY   75  59  57 S7        30.21F
MORGANTOWN     PTSUNNY   79  53  40 CALM      30.22F
$$

WVZ025-035-042-045-052300-
Southern West Virginia

CITY           SKY/WX    TMP DP  RH WIND       PRES   REMARKS
BECKLEY        PTSUNNY   76  46  34 CALM      30.27F
LOGAN          PTSUNNY   77  52  41 VRB6      30.21S
BLUEFIELD      CLOUDY    76  47  35 NE7       30.30S
LEWISBURG      PTSUNNY   77  50  37 CALM      30.27S
$$

WVZ047-052300-
Northern Mountains of West Virginia

CITY           SKY/WX    TMP DP  RH WIND       PRES   REMARKS
ELKINS         PTSUNNY   68  57  68 SW3       30.27S
$$

WVZ052-052300-
Eastern Panhandle of West Virginia

CITY           SKY/WX    TMP DP  RH WIND       PRES   REMARKS
MARTINSBURG    MOSUNNY   75  60  59 SW6       30.19F
PETERSBURG     CLOUDY    68  58  69 E5        30.23R
$$


USA.gov is the U.S. government's official web portal to all federal, state and local government web resources and services.